Погода в Кривляке

Россия / Красноярский край     60°17′58″N   90°01′42″E
темп.,
°C
ветер,
м/с
пор.,
м/с
влажн.,
%
обл.,
%
осадки,
мм/ч
давл.,
гПа
погр.,
м
2 августа, пн
пн201:00+15зсз007281 0.1 100910
04:00+12ююв1187100 0.0 100815
07:00+14ююв238241 0.0 1008164
10:00+21юв23577 0.0 1007906
13:00+24ююв234311 0.0 10061751
16:00+22ююз2455100 0.0 1005247
19:00+22в3557100 0.1 1005232
22:00+15в2397100 1.8 100574
3 августа, вт
вт301:00+15вюв1190100 1.8 100511
04:00+13в119253 0.0 100511
07:00+14юв249477 0.4 1005147
10:00+19ююв236676 0.0 1005608
13:00+24ююв23435 0.0 10041687
16:00+24ю2340100 0.0 10041971
19:00+20ююз2364100 0.0 100598
22:00+17ююв227369 0.0 100735
4 августа, ср
ср401:00+16ююв237481 0.0 100762
04:00+13юв11856 0.0 100813
07:00+16юв12727 0.0 1009114
10:00+22юв115491 0.0 1009627
13:00+26зсз113917 0.0 10081434
16:00+27сз123671 0.0 10072191
19:00+23ссз365397 0.0 1007222
22:00+19с396397 0.0 1007188
5 августа, чт
чт501:00+16с1185100 1.3 100615
04:00+15с119060 3.2 100616
07:00+17в128898 3.3 100664
10:00+22ююв1268100 0.3 1006389
13:00+24юз2158100 0.3 1005651
16:00+25ююз235485 0.1 1005922
19:00+18с2683100 0.8 1004116
22:00+16св119585 0.1 100513
6 августа, пт
пт601:00+16с2495100 0.1 100568
04:00+15ссв1195100 0.0 100411
07:00+18св118553 0.0 100546
10:00+25юв1250100 0.0 1005559
13:00+28сз234197 0.0 10051906
16:00+21ююв127697 0.9 1005186
19:00+24св145778 1.0 1005231
22:00+18всв257616 0.1 100680